Regional Weather Roundup
Issued by NWS

Home | Current Version | Previous Version | Graphics & Text | Print | Product List | Glossary On
Versions: 1 2 3 4 5 6 7 8 9 10 11 12 13 14 15 16 17 18 19 20 21 22 23 24 25 26 27 28 29 30 31 32 33 34 35 36 37 38 39 40 41 42 43 44 45 46 47 48 49 50
000
ASUS43 KLOT 020612
RWRIL

ILLINOIS REGIONAL WEATHER ROUNDUP
NATIONAL WEATHER SERVICE CHICAGO/ROMEOVILLE IL
100 AM CDT THU JUL 02 2015

NOTE: "FAIR" INDICATES FEW OR NO CLOUDS BELOW 12,000 FEET WITH NO
SIGNIFICANT WEATHER AND/OR OBSTRUCTIONS TO VISIBILITY.

* THESE STATIONS ARE NOT UNDER NWS QUALITY CONTROL. THEY ALSO MAY NOT
  REPORT WEATHER SUCH AS PRECIPITATION OR FOG.

ILZ001-002-007-009-015-016-024-020700-
NORTHWEST ILLINOIS

CITY           SKY/WX    TMP DP  RH WIND       PRES   REMARKS
MOLINE         CLOUDY    65  56  72 E13       29.97S
6HR MIN TEMP:  65; 6HR MAX TEMP:  72;

STERLING*      MOCLDY    57  52  82 E7        30.01R
$$

ILZ003-004-008-010-011-017-018-020700-
NORTH CENTRAL ILLINOIS

CITY           SKY/WX    TMP DP  RH WIND       PRES   REMARKS
ROCKFORD       CLEAR     55  50  83 CALM      30.03R
6HR MIN TEMP:  55; 6HR MAX TEMP:  69;

$$

ILZ005-006-012>014-019>023-020700-
NORTHEAST ILLINOIS

CITY           SKY/WX    TMP DP  RH WIND       PRES   REMARKS
CHICAGO-OHARE  PTCLDY    54  50  86 N7        29.99F
6HR MIN TEMP:  54; 6HR MAX TEMP:  59;

CHICAGO-MIDWAY PTCLDY    58  51  78 NE9       29.99S
6HR MIN TEMP:  58; 6HR MAX TEMP:  62;

AURORA         PTCLDY    54  49  83 CALM      30.00F
6HR MIN TEMP:  53; 6HR MAX TEMP:  65; 6HR PCP: TRACE;

WAUKEGAN       CLEAR     50  49  96 CALM      29.99F
6HR MIN TEMP:  48; 6HR MAX TEMP:  54;

DUPAGE AIRPORT PTCLDY    51  48  89 NE5       29.99F
6HR MIN TEMP:  51; 6HR MAX TEMP:  61;

WHEELING       CLEAR     53  49  86 N3        30.01F
6HR MIN TEMP:  52; 6HR MAX TEMP:  57;

NORTHERLY ISL    N/A     56  51  84 MISG        N/A
$$

LMZ740>746-020700-
SOUTHERN LAKE MICHIGAN

STATION/POSITION SKY/WX   TEMP    WIND        PRES    VSBY  WAVE
                          AIR SEA DIR/SP/G                  HT/PER
                          (F)     (DEG/KT/KT) (MB)    (MI)  (FT/S)
HARRISON CRIB              56     350/ 12/ 13   N/A
BURNHAM HARBOR             56     350/  9/ 11   N/A
CALUMET HARBOR             57     350/  7/ 10   N/A
BURNS HARBOR               58      30/ 10/ 13 1016.3S
MICHIGAN CITY              58     350/ 12/ 14   N/A
MICHIGAN CITY 6N           60 64   50/ 10/ 12   N/A           3/ 5
ST. JOSEPH                 58 63                N/A           3/ 5
$$

ILZ025>027-034>036-040-047-049-050-058-095>099-020700-
WEST-CENTRAL ILLINOIS

CITY           SKY/WX    TMP DP  RH WIND       PRES   REMARKS
QUINCY         MOCLDY    69  66  90 E6        29.91R
$$

ILZ028>032-037-038-041>044-048-051>054-059>061-020700-
CENTRAL ILLINOIS

CITY           SKY/WX    TMP DP  RH WIND       PRES   REMARKS
BLOOMINGTON    CLOUDY    60  55  83 NE13      29.97S
DECATUR        CLOUDY    64  60  87 NE8       29.93R
PEORIA         CLOUDY    65  54  67 E15       29.95S
6HR MIN TEMP:  65; 6HR MAX TEMP:  75;

SPRINGFIELD    CLOUDY    69  62  78 E13       29.92R
6HR MIN TEMP:  69; 6HR MAX TEMP:  76;

TAYLORVILLE    NOT AVBL
$$

ILZ033-039-045-046-055>057-062-063-020700-
EAST-CENTRAL ILLINOIS

CITY           SKY/WX    TMP DP  RH WIND       PRES   REMARKS
CHAMPAIGN      MOCLDY    61  53  75 NE12      29.94S
MATTOON        CLOUDY    64  59  83 NE10      29.92R
$$

ILZ079-100>102-020700-
SOUTHWEST ILLINOIS

CITY           SKY/WX    TMP DP  RH WIND       PRES   REMARKS
BELLEVILLE     CLOUDY    71  71 100 NE3       29.86F
CAHOKIA*       CLOUDY    73  70  90 NE5       29.86F
$$

ILZ064>066-069>071-074>076-080>082-084>086-088>090-092>094-020700-
SOUTH-CENTRAL ILLINOIS

CITY           SKY/WX    TMP DP  RH WIND       PRES   REMARKS
CARBONDALE     TSTM      72  71  97 NE7       29.88S FOG
6HR MIN TEMP:  72; 6HR MAX TEMP:  80; 6HR PCP:  0.39;

MT. VERNON     CLOUDY    72  68  88 NE6       29.88F
$$

ILZ067-068-072-073-078-083-087-091-020700-
SOUTHEAST ILLINOIS

CITY           SKY/WX    TMP DP  RH WIND       PRES   REMARKS
LAWRENCEVILLE  HVY RAIN  70  69  97 N3        29.91R FOG
$$

ABBREVIATIONS USED IN REMARKS
   TC - TEMPERATURE IN CELSIUS
  WCI - WIND CHILL INDEX
   HX - HEAT INDEX
  VSB - VISIBILITY
$$




USA.gov is the U.S. government's official web portal to all federal, state and local government web resources and services.